Вернуться в каталог

STARLINK-31309

АктивенСвязьVLEO
NORAD 59164·PAYLOAD·🇺🇸 United States

Запущен Mar 4, 2024 с Cape Canaveral Space Force Station

Loading…

Ближайшие Пролёты (ближайшие 24 часа)

TLE

СвежийSource: CelesTrak SupGP

Эпоха: Sep 15, 2026, 02:22 UTC

1 59164C 24044N   26258.09909722  .00056819  00000+0  20582-2 0  2585
2 59164  42.9997 117.1926 0001570 275.3196 135.0510 15.27545659    15

Отслеживайте STARLINK-31309 в реальном времени с AllMySat

Download on the App Store